Temperature
17 17 17 17 17 17 17 17 17 17 17 17 17 17 17 17 17 17 17 17 17 16 16 16 16 16 16 15 15 15 15 15 15 15 15 15 15 14
17 17 17 17 17 17 17 17 17 17 16 17 17 17 17 17 17 17 16 16 16 16 16 16 16 15 15 15 15 15 15 15 14 14 14 14 14 14
17 17 17 17 17 17 17 17 17 16 16 16 16 16 16 16 16 16 16 16 15 15 15 15 15 15 15 15 15 14 14 14 14 14 14 14 14 14
16 16 16 16 16 16 16 16 16 16 16 16 16 16 16 16 16 15 15 15 15 15 15 15 14 14 14 14 14 14 14 14 14 14 13 13 13 13
16 16 16 16 16 16 16 16 16 15 15 15 15 15 15 15 15 15 15 14 14 14 14 14 14 14 14 13 13 13 13 13 13 13 13 13 12 12
15 15 15 15 15 15 15 15 15 15 15 15 15 14 15 14 14 14 14 14 13 13 13 13 13 13 13 13 13 13 13 12 12 12 12 12 12 12
15 15 15 15 15 15 15 14 14 14 14 14 14 14 14 14 14 14 13 13 13 13 13 13 13 12 12 12 12 12 12 12 11 11 11 11 11 11
15 14 14 14 14 14 14 14 14 14 14 13 13 13 13 13 13 13 13 13 12 12 12 12 12 12 12 11 11 11 11 11 11 11 10 10 10 11
14 14 14 13 13 13 13 13 13 13 13 13 13 12 12 12 12 12 12 12 12 12 12 11 11 11 11 11 11 11 10 10 10 10 10 10 10 10
14 13 13 13 13 13 13 13 12 12 12 12 12 12 12 12 12 12 11 12 11 11 11 11 10 10 10 10 10 10 10 10 10 9 9 9 9 9
13 13 13 13 12 12 12 12 12 12 11 11 11 11 11 11 11 11 11 11 10 10 10 10 10 10 10 10 9 9 9 9 9 9 9 9 8 8
12 12 12 12 12 12 12 11 11 11 11 11 11 11 11 11 10 10 10 10 10 10 9 10 9 9 9 9 9 9 9 9 8 8 8 8 8 8
12 12 12 11 11 11 11 11 11 11 11 11 11 10 10 10 10 10 10 10 9 9 9 9 9 9 9 9 8 8 8 8 8 8 8 8 8 7
12 11 11 11 11 11 11 11 10 10 10 10 10 10 10 10 10 9 9 9 9 9 9 9 9 8 8 8 8 8 8 8 8 7 7 7 7 7
11 11 11 11 10 10 10 10 10 10 10 10 10 9 9 9 9 9 9 9 9 9 9 9 8 8 8 8 8 8 7 7 7 7 7 7 7 6
11 11 10 10 10 10 10 10 10 10 10 9 9 9 9 9 9 9 9 9 9 9 8 8 8 8 8 8 8 7 7 7 7 7 7 6 6 6
10 10 10 10 10 10 9 9 9 9 9 9 9 9 9 9 8 8 8 8 8 8 8 8 8 8 8 8 7 7 7 7 6 6 6 6 6 6
10 10 10 10 10 9 9 9 9 9 8 8 8 8 8 8 8 8 8 8 8 8 8 8 7 7 7 7 7 7 6 6 6 6 6 6 5 5
10 10 10 9 9 9 9 9 8 8 8 8 8 8 8 8 8 8 8 8 7 7 7 7 7 7 7 7 6 6 6 6 6 6 6 5 5 5
10 9 9 9 9 8 8 8 8 7 7 7 7 7 7 7 7 7 7 7 7 7 7 7 7 7 6 6 6 6 6 6 6 6 5 5 5 5
9 9 9 8 8 8 8 7 7 7 7 7 7 7 7 7 7 7 7 7 7 7 7 7 6 6 6 6 6 6 6 6 6 6 5 5 5 5
9 8 8 8 7 7 7 7 7 7 7 7 7 7 7 7 7 7 7 6 6 6 6 6 6 6 6 6 6 6 6 6 6 5 5 5 5 5
8 8 8 7 7 7 7 7 7 6 6 6 6 6 6 6 6 6 6 6 6 6 6 6 6 6 6 6 6 6 6 6 5 5 5 5 5 5
Wind_Speed
4 4 4 4 3 3 3 3 4 4 3 2 2 2 2 3 5 6 6 10 11 10 9 8 8 7 7 7 8 8 9 10 10 10 11 11 11 11
3 4 4 3 3 3 3 2 3 3 3 2 2 1 1 1 4 3 4 7 10 9 9 8 8 7 6 6 6 7 7 7 7 7 7 7 8 9
2 3 3 3 2 2 2 2 2 2 3 3 2 2 1 1 1 1 2 4 5 8 9 9 8 6 6 5 4 4 5 5 6 6 6 6 6 7
1 1 2 2 1 1 2 2 2 2 2 3 2 2 2 2 1 1 1 2 3 4 6 6 5 5 4 3 3 2 2 3 3 3 3 3 4 4
3 3 2 2 2 2 1 2 1 2 1 1 2 1 1 2 2 2 1 1 2 3 4 4 4 4 4 3 2 2 2 2 2 1 1 1 2 2
5 5 5 4 3 2 2 2 1 1 1 0 0 1 1 2 1 1 1 1 2 3 5 5 7 7 6 5 4 3 3 3 3 3 2 2 2 2
6 7 7 9 10 7 5 5 4 3 2 2 2 2 3 3 2 2 1 2 3 3 2 3 5 5 6 7 7 6 5 5 5 5 5 5 5 4
6 6 7 8 9 10 11 11 9 5 4 3 3 3 3 3 3 2 2 2 1 2 2 2 3 4 5 6 7 8 8 7 7 7 6 6 6 6
8 7 7 7 7 6 8 10 11 12 9 5 5 4 3 4 3 3 3 2 1 2 2 2 3 3 4 6 7 8 7 7 6 6 6 5 5 5
9 9 8 8 9 7 7 8 9 9 8 7 6 5 5 4 3 3 2 2 3 4 4 2 2 2 3 5 6 7 6 5 5 5 4 4 3 3
9 10 9 9 11 9 7 7 7 6 8 10 9 7 8 9 6 4 4 3 3 3 4 3 2 2 2 2 3 4 3 3 3 3 2 1 0 2
7 9 13 11 12 11 7 6 6 5 4 4 4 4 5 7 9 6 4 4 3 2 3 3 2 2 1 1 1 2 2 2 2 2 2 2 2 2
6 6 7 10 12 12 9 6 4 3 1 2 3 3 4 4 5 6 5 3 3 3 2 2 2 2 1 1 1 1 1 1 1 2 3 3 2 1
6 6 5 7 9 9 7 7 7 5 2 3 4 4 4 4 4 3 3 3 2 2 2 2 2 2 2 1 1 0 1 1 1 1 1 2 0 1
5 5 3 3 3 4 5 7 6 4 4 5 5 5 3 3 2 2 2 2 2 2 3 3 2 3 2 2 2 2 2 2 2 2 2 1 1 1
3 2 1 2 2 4 4 5 4 5 5 4 4 3 3 3 3 3 2 2 2 1 2 5 4 3 2 3 3 3 2 2 2 3 3 2 2 4
2 0 1 2 3 4 4 4 5 5 5 5 4 4 4 3 3 3 3 3 3 3 3 2 3 4 3 3 3 3 3 3 2 2 2 2 2 4
4 3 4 4 5 5 4 4 5 5 5 5 4 4 4 4 4 3 3 3 3 3 3 3 3 2 2 3 4 3 3 3 3 2 2 1 2 3
3 4 4 4 5 5 5 5 5 5 4 5 4 4 4 4 4 4 4 4 4 4 3 4 4 4 4 3 3 5 3 3 4 3 2 2 1 1
3 4 5 5 5 5 5 5 5 4 4 4 4 4 4 4 4 4 4 5 4 4 3 4 4 4 3 3 2 2 3 2 2 3 3 2 2 3
4 5 5 5 5 4 4 4 4 4 4 4 4 5 5 5 4 4 4 5 4 4 4 3 3 4 3 3 2 1 1 3 2 1 2 2 1 1
5 5 5 5 4 4 4 4 4 4 5 5 5 5 5 5 5 5 5 4 4 4 4 3 3 3 3 3 3 2 1 2 2 2 2 2 1 1
5 4 4 4 4 3 4 5 5 5 5 5 5 5 5 4 4 4 4 4 4 4 4 4 4 3 4 3 3 3 3 2 1 1 2 5 7 7
Wind_Direction
242 250 250 262 264 259 252 239 236 258 270 261 252 245 154 159 168 169 175 188 189 190 195 203 213 222 228 233 237 239 241 243 245 245 245 245 245 244
239 253 255 261 268 268 261 251 231 232 251 267 261 253 156 176 150 147 182 167 179 186 193 199 204 211 219 228 235 239 241 244 247 247 247 249 251 249
258 255 255 255 258 274 285 269 252 230 242 270 295 331 8 44 86 146 181 161 176 188 195 198 198 202 210 216 223 232 238 242 243 247 248 249 255 256
304 322 325 309 313 315 310 295 275 260 239 256 294 334 352 19 26 348 83 142 147 166 187 191 188 188 190 190 182 179 213 232 232 236 243 247 255 263
34 25 14 19 18 9 352 328 314 298 249 232 274 315 343 356 347 343 28 42 74 106 120 133 136 131 131 136 131 127 133 155 156 162 190 233 255 273
42 40 33 29 19 8 8 353 345 355 335 292 304 333 341 339 0 331 19 39 52 71 71 91 102 105 102 95 91 91 107 120 116 110 102 92 80 52
49 50 55 57 55 49 44 27 21 22 19 30 29 30 16 0 351 331 31 57 60 60 77 88 94 90 86 78 74 75 82 84 85 86 83 77 72 68
53 52 64 62 64 67 64 58 50 45 37 41 34 34 20 12 1 5 39 41 31 26 46 63 93 91 91 86 86 87 87 87 85 82 81 79 76 73
47 46 55 52 49 68 71 63 55 48 49 59 50 30 27 14 18 22 20 20 17 14 36 41 65 80 83 95 107 106 104 102 101 101 99 90 79 73
49 46 50 45 37 44 67 66 59 48 46 61 61 48 41 17 17 25 28 34 66 38 24 33 35 51 80 102 120 119 119 120 120 117 110 104 84 57
58 50 48 48 32 43 66 73 70 67 63 69 72 65 53 42 36 38 31 40 44 42 21 24 15 24 40 96 125 145 147 150 149 151 148 141 47 6
74 62 51 44 35 37 53 61 63 52 52 57 64 56 54 49 46 41 35 34 37 43 20 17 14 16 7 16 110 174 191 215 217 226 235 254 275 288
73 64 49 41 43 41 46 51 42 14 18 72 83 72 58 51 52 50 43 43 43 39 19 11 350 354 358 334 313 206 180 161 208 281 275 269 281 332
73 73 68 51 49 43 43 25 11 5 16 52 63 56 53 51 46 48 48 46 71 106 30 16 355 357 350 348 344 14 37 44 90 105 18 0 44 53
79 83 77 53 35 46 37 19 14 20 29 45 51 51 49 42 34 28 18 11 16 60 70 53 20 1 359 9 6 22 20 10 36 38 32 32 111 91
93 105 69 360 21 36 33 37 40 33 33 41 42 38 33 33 30 25 17 7 24 37 56 46 35 23 9 8 20 22 23 14 19 25 11 3 58 72
11 97 91 85 79 69 59 48 40 35 35 31 30 25 25 25 23 22 16 9 20 28 29 12 24 41 53 30 21 23 17 11 16 7 360 9 50 90
22 57 59 52 51 51 52 56 51 35 24 25 27 23 19 18 18 16 16 16 14 16 23 18 10 7 20 40 26 13 15 1 346 341 343 8 69 84
37 64 62 52 49 48 47 47 49 36 19 22 24 19 10 7 8 8 16 17 12 6 10 14 14 11 1 3 1 11 10 356 350 346 342 7 54 101
59 67 65 60 52 45 43 40 42 34 20 20 17 8 2 6 6 8 21 14 0 354 3 18 23 12 351 329 316 325 354 355 354 348 344 16 57 90
66 65 61 59 56 51 43 40 40 35 20 12 18 9 6 8 11 7 11 9 356 355 7 12 347 321 292 312 332 352 351 359 357 306 325 335 327 260
59 61 58 53 46 40 36 32 33 31 19 19 22 9 7 5 5 5 5 3 358 358 356 347 333 331 327 325 328 328 324 321 335 314 262 243 264 286
56 58 64 52 47 32 28 29 31 29 21 16 13 2 3 360 353 357 0 357 354 353 346 347 344 331 323 322 338 349 345 317 287 283 283 261 247 249
Height
1538 1539 1540 1541 1542 1542 1543 1544 1545 1544 1544 1544 1544 1545 1544 1544 1545 1545 1545 1545 1545 1545 1546 1546 1546 1547 1547 1547 1547 1547 1547 1548 1548 1548 1549 1549 1550 1550
1535 1536 1536 1537 1538 1538 1539 1539 1540 1540 1540 1540 1541 1542 1541 1541 1541 1541 1541 1541 1541 1542 1542 1542 1542 1542 1542 1542 1542 1542 1542 1542 1543 1543 1544 1544 1544 1545
1532 1532 1533 1533 1533 1534 1535 1535 1536 1537 1537 1537 1538 1539 1539 1539 1538 1538 1538 1537 1537 1538 1538 1538 1538 1538 1538 1538 1537 1537 1537 1537 1537 1537 1538 1538 1538 1539
1529 1529 1529 1529 1530 1530 1531 1532 1532 1533 1534 1534 1534 1535 1535 1536 1535 1535 1535 1534 1534 1534 1534 1534 1534 1534 1534 1533 1533 1532 1532 1532 1531 1531 1532 1532 1533 1533
1527 1527 1527 1527 1527 1528 1528 1529 1529 1530 1531 1531 1531 1532 1532 1532 1532 1532 1532 1532 1531 1530 1530 1531 1531 1530 1530 1529 1528 1528 1527 1527 1526 1526 1526 1526 1527 1527
1525 1525 1525 1525 1525 1526 1526 1526 1527 1527 1528 1528 1529 1529 1529 1529 1529 1529 1529 1529 1529 1528 1528 1528 1528 1527 1527 1526 1525 1524 1523 1522 1522 1521 1521 1522 1522 1522
1525 1525 1525 1524 1524 1524 1525 1525 1525 1526 1526 1527 1527 1527 1526 1526 1526 1527 1527 1527 1527 1527 1526 1526 1526 1525 1524 1523 1522 1521 1519 1519 1518 1518 1517 1518 1518 1518
1526 1525 1525 1524 1524 1524 1525 1525 1525 1525 1525 1525 1525 1525 1525 1525 1525 1525 1525 1525 1525 1526 1525 1525 1524 1523 1523 1521 1520 1519 1518 1517 1516 1516 1516 1515 1515 1515
1527 1526 1526 1525 1525 1525 1525 1525 1525 1525 1526 1526 1525 1525 1525 1525 1524 1524 1524 1524 1524 1524 1524 1524 1523 1522 1522 1521 1520 1519 1518 1517 1516 1516 1515 1514 1514 1513
1529 1528 1528 1527 1527 1527 1527 1527 1526 1526 1526 1526 1526 1526 1525 1525 1524 1524 1524 1524 1524 1523 1523 1523 1523 1522 1522 1521 1521 1519 1519 1517 1516 1515 1514 1514 1513 1513
1531 1531 1530 1529 1529 1529 1528 1528 1528 1528 1528 1528 1527 1527 1526 1525 1525 1524 1524 1524 1523 1523 1523 1523 1523 1522 1522 1522 1521 1520 1519 1518 1517 1516 1515 1514 1513 1513
1533 1533 1533 1532 1532 1531 1531 1530 1530 1530 1530 1530 1529 1529 1528 1527 1526 1525 1525 1525 1524 1524 1524 1524 1523 1523 1522 1522 1521 1520 1519 1519 1518 1517 1516 1515 1513 1512
1535 1535 1535 1535 1534 1533 1533 1532 1532 1532 1532 1532 1531 1531 1530 1529 1528 1527 1527 1526 1526 1525 1525 1524 1524 1523 1523 1522 1522 1521 1520 1519 1518 1516 1515 1515 1513 1512
1538 1538 1537 1537 1537 1536 1535 1535 1535 1535 1534 1534 1533 1533 1532 1531 1530 1530 1529 1528 1528 1527 1526 1525 1525 1524 1523 1522 1522 1521 1520 1519 1518 1516 1515 1514 1513 1511
1540 1540 1540 1539 1539 1538 1538 1537 1537 1536 1536 1536 1535 1535 1534 1533 1532 1531 1531 1530 1529 1528 1527 1526 1525 1524 1523 1523 1522 1521 1520 1519 1518 1516 1515 1513 1512 1510
1542 1542 1542 1542 1541 1541 1540 1540 1539 1538 1538 1537 1537 1536 1535 1534 1533 1533 1532 1531 1530 1529 1528 1527 1526 1525 1524 1523 1522 1521 1520 1519 1517 1516 1514 1512 1511 1509
1544 1544 1544 1544 1544 1543 1542 1542 1541 1540 1539 1539 1538 1537 1537 1536 1535 1534 1533 1532 1531 1530 1529 1528 1527 1526 1524 1523 1522 1521 1520 1518 1517 1515 1513 1511 1510 1508
1546 1546 1546 1546 1546 1545 1545 1544 1543 1542 1541 1540 1539 1539 1538 1537 1536 1535 1534 1533 1532 1531 1529 1528 1527 1525 1524 1523 1523 1521 1519 1517 1516 1514 1512 1511 1509 1507
1548 1548 1548 1548 1547 1547 1546 1545 1544 1543 1542 1542 1541 1540 1539 1538 1537 1536 1535 1533 1532 1531 1529 1528 1527 1525 1524 1523 1522 1521 1519 1517 1515 1513 1511 1510 1508 1506
1550 1550 1549 1549 1549 1548 1547 1547 1546 1545 1544 1543 1542 1541 1540 1539 1538 1536 1535 1534 1532 1531 1529 1528 1526 1525 1524 1522 1521 1519 1518 1516 1514 1512 1510 1509 1507 1506
1551 1551 1551 1550 1550 1549 1549 1548 1547 1546 1545 1544 1543 1542 1541 1540 1538 1537 1536 1534 1533 1531 1529 1528 1526 1525 1523 1522 1520 1518 1517 1515 1513 1511 1509 1508 1506 1504
1552 1552 1551 1551 1551 1550 1550 1549 1548 1547 1546 1545 1544 1542 1541 1540 1539 1537 1536 1534 1533 1531 1529 1528 1526 1524 1522 1521 1519 1517 1515 1514 1512 1510 1508 1507 1505 1503
1553 1553 1552 1552 1551 1551 1550 1549 1548 1547 1546 1545 1544 1543 1541 1540 1539 1537 1536 1534 1533 1531 1529 1527 1525 1523 1522 1520 1518 1517 1515 1513 1511 1509 1507 1506 1504 1502